Location: Daerah Kuala Lumpur
(3.1167°N, 101.6833°E)
Time: 20:10:51
(UTC+00:00)

Cosmos 1821 Rocket - Pass Details

Date: 05 August 2024
Orbit: 943 x 1005 km, 82.9° (Epoch: 14 September)

Event Time Altitude Azimuth Distance (km) Brightness Sun altitude
Rises 13:06:05 0° 188° (S) 3,682 6.9 -24.5°
Reaches altitude 10° 13:08:36 10° 190° (S) 2,741 6.2 -25.1°
Maximum altitude 13:14:52 72° 273° (W) 1,044 4.2 -26.5°
Drops below altitude 10° 13:21:12 10° 357° (N) 2,764 6.6 -28.0°
Sets 13:23:44 0° 359° (N) 3,715 7.3 -28.6°
